Regional Weather Roundup
Issued by NWS Kansas City/Pleasant Hill, MO

Home | Current Version | Previous Version | Text Only | Print | Product List | Glossary On
Versions: 1 2 3 4 5 6 7 8 9 10 11 12 13 14 15 16 17 18 19 20 21 22 23 24 25 26 27 28 29 30 31 32 33 34 35 36 37 38 39 40 41 42 43 44 45 46 47 48 49 50
000
ASUS43 KEAX 260211
RWREAX

WEATHER ROUNDUP FOR EASTERN KANSAS AND NORTHWEST MISSOURI
NATIONAL WEATHER SERVICE KANSAS CITY/PLEASANT HILL MO
900 PM CDT MON MAY 25 2015

KSZ040-057-103>105-MOZ028-029-037-043-260300-
...KANSAS CITY METROPOLITAN AREA...

CITY           SKY/WX    TMP DP  RH WIND       PRES   REMARKS
K.C. INTL      CLOUDY    71  65  81 S7        29.85R
K.C. DOWNTOWN  MOCLDY    76  63  64 CALM      29.83R
LEES SUMMIT    CLOUDY    75  65  70 SE3       29.85R
OLATHE - IXD   CLOUDY    72  65  78 SE6       29.85R
OLATHE - OJC   CLOUDY    73  66  78 CALM      29.84R
LAWRENCE       CLOUDY    73  66  78 SE6       29.83R

$$

MOZ001>008-011>017-020>025-030>033-038>040-044>046-053-054-260300-
...NORTHERN AND CENTRAL MISSOURI...

CITY           SKY/WX    TMP DP  RH WIND       PRES   REMARKS
ST. JOSEPH     HVY RAIN  60  58  92 N12       29.87F FOG
MOSBY          CLOUDY    72  64  78 CALM      29.85R
WARRENSBURG    CLOUDY    73  64  73 SE7       29.85R
WHITEMAN AFB   CLOUDY    75  66  75 SE8       29.86R
CLINTON        CLOUDY    75  68  78 SE6       29.86R
SEDALIA        CLOUDY    76  65  68 SE9       29.88S
WARSAW         NOT AVBL
CHILLICOTHE      N/A     75  66  73 SE5       29.85S
KIRKSVILLE     PTCLDY    69  66  90 SE7       29.88R

$$

MOZ041-047>049-056>058-063>065-088>090-097-260300-
...EASTERN AND SOUTHERN MISSOURI...

CITY           SKY/WX    TMP DP  RH WIND       PRES   REMARKS
ST. LOUIS INTL MOCLDY    79  65  62 S13G22    29.95R
SPIRIT OF STL  PTCLDY    76  66  71 S8        29.94R
COLUMBIA       CLOUDY    74  64  71 SE6       29.90S
JEFFERSON CITY CLOUDY    76  64  66 SE9       29.88S
ROLLA          MOCLDY    73  66  78 SE10      29.91S
OSAGE BEACH    CLOUDY    73  63  68 SE5       29.88F
SPRINGFIELD    CLOUDY    74  64  71 S14G22    29.86F
BRANSON        TSTM      70  66  88 SE8       29.90S
JOPLIN         LGT RAIN  67  61  81 S12       29.86R
WEST PLAINS    CLOUDY    72  66  81 SE10      29.92F

$$

IAZ060-094-KSZ022-034>040-054-083-096-NEZ052-066-093-260300-
...KANSAS...SOUTHEAST NEBRASKA AND IOWA...

CITY           SKY/WX    TMP DP  RH WIND       PRES   REMARKS
TOPEKA         CLOUDY    70  56  61 N9        29.82R
MANHATTAN      LGT RAIN  62  60  93 E3        29.78F
EMPORIA        CLOUDY    72  67  84 SE10      29.80S
CHANUTE        TSTM      66  62  87 S15G24    29.83R
WICHITA        LGT RAIN  62  57  83 W10       29.82F
OMAHA          CLOUDY    68  59  73 S29G39    29.75F
LINCOLN        CLOUDY    68  54  60 S6        29.77R
FALLS CITY     RAIN      61  59  93 SE8       29.84R
LAMONI         CLOUDY    67  57  70 W23G30    29.87R
DES MOINES     CLOUDY    74  64  71 S12       29.80S

$$




USA.gov is the U.S. government's official web portal to all federal, state and local government web resources and services.